Вернуться в каталог

HJS-4A

АктивенНаукаLEO
NORAD 58691·PAYLOAD·🇨🇳 China

Запущен Dec 30, 2023 с Jiuquan Satellite Launch Center

Loading…

Ближайшие Пролёты (ближайшие 24 часа)

TLE

СвежийSource: Space-Track

Эпоха: Sep 14, 2026, 15:00 UTC

1 58691U 23212A   26257.62543390 -.00000115  00000-0  23958-4 0  9992
2 58691  50.0023  16.0683 0000697  68.0154 292.0798 13.41461889133257

Отслеживайте HJS-4A в реальном времени с AllMySat

Download on the App Store